Volver al catálogo

STARLINK-4122

ActivoComunicacionesVLEO
NORAD 53272·PAYLOAD·🇺🇸 United States

Lanzado Jul 24, 2022 desde Cape Canaveral Space Force Station

Loading…

Próximos Pases (próximas 24 horas)

TLE

ActualizadoSource: CelesTrak SupGP

Época: Sep 15, 2026, 02:08 UTC

1 53272C 22086AG  26258.08937500 -.00030782  00000+0 -90954-3 0  2581
2 53272  53.1593  38.6628 0001208  81.5094 170.9162 15.34403973    14

Sigue STARLINK-4122 en tiempo real con AllMySat

Download on the App Store